EDT,Max TemperatureF,Mean TemperatureF,Min TemperatureF,Max Dew PointF,MeanDew PointF,Min DewpointF,Max Humidity, Mean Humidity, Min Humidity, Max Sea Level PressureIn, Mean Sea Level PressureIn, Min Sea Level PressureIn, Max VisibilityMiles, Mean VisibilityMiles, Min VisibilityMiles, Max Wind SpeedMPH, Mean Wind SpeedMPH, Max Gust SpeedMPH,PrecipitationIn, CloudCover, Events, WindDirDegrees
2014-3-1,35,24,12,29,15,0,78,62,45,30.44,30.31,30.13,10,10,10,10,5,21,0.00,3,,208
2014-3-2,35,34,32,26,22,17,79,63,52,30.12,30.02,29.96,10,10,9,10,4,,0.00,7,,289
2014-3-3,32,25,15,17,8,-4,86,58,40,30.29,30.09,29.95,10,7,0,18,12,25,0.01,5,Fog-Snow,342
2014-3-4,26,18,10,10,2,-4,59,46,31,30.38,30.31,30.25,10,10,10,10,6,,0.00,2,,312
2014-3-5,33,27,19,20,14,9,75,61,43,30.44,30.29,30.22,10,10,9,16,7,23,0.00,7,Snow,12
2014-3-6,28,21,14,13,7,0,74,56,37,30.61,30.55,30.46,10,10,10,15,10,24,0.00,0,,29
2014-3-7,39,28,17,27,20,12,81,69,53,30.51,30.23,29.91,10,10,10,12,5,,0.00,4,,37
2014-3-8,55,42,28,27,25,23,85,56,29,29.89,29.78,29.69,10,10,10,12,8,,0.00,1,,330
2014-3-9,42,37,32,26,14,7,62,40,28,29.94,29.89,29.84,10,10,10,18,8,24,0.00,3,,322
2014-3-10,43,37,32,34,25,7,89,70,34,29.90,29.80,29.67,10,8,2,9,5,,0.00,6,Snow,209
2014-3-11,60,48,37,36,31,24,93,61,28,29.72,29.60,29.52,10,9,6,12,7,18,0.00,1,,264
2014-3-12,51,45,39,49,42,28,97,85,50,29.71,29.27,28.95,10,5,0,20,9,30,0.62,7,Fog-Rain,164
2014-3-13,41,32,17,48,18,2,97,75,48,29.96,29.32,28.95,10,6,0,23,16,36,0.04,7,Rain-Snow,314
2014-3-14,39,28,16,33,14,0,77,58,45,30.21,30.09,29.97,10,10,10,14,11,32,0.00,2,,234
2014-3-15,55,47,39,38,33,25,86,67,31,29.95,29.81,29.69,10,10,8,15,9,26,0.00,3,Rain,231
2014-3-16,39,34,28,28,9,0,65,39,27,30.19,30.08,29.92,10,10,10,18,12,24,0.00,2,,307
2014-3-17,30,24,19,14,4,-5,74,42,29,30.16,30.10,30.04,10,10,10,17,11,23,0.00,4,,26
2014-3-18,41,30,19,20,15,6,77,60,36,30.34,30.27,30.16,10,10,10,12,5,18,0.00,0,,55
2014-3-19,42,32,24,35,26,19,89,72,55,30.38,30.22,29.96,10,10,10,14,7,22,0.00,4,,98
2014-3-20,52,44,37,43,37,22,97,78,38,29.95,29.71,29.64,10,7,0,15,11,32,0.42,6,Fog-Rain,262
2014-3-21,46,40,33,22,21,19,59,48,37,30.06,29.89,29.79,10,10,10,16,11,28,0.00,1,,294
2014-3-22,59,42,28,38,27,18,75,58,32,30.06,29.89,29.68,10,10,10,18,9,31,0.00,1,Rain,244
2014-3-23,44,37,28,25,17,6,73,48,23,30.02,29.96,29.90,10,10,10,14,6,22,0.00,2,,304
2014-3-24,34,25,17,4,-1,-5,44,32,20,30.17,30.11,30.04,10,10,10,20,14,29,0.00,0,,332
2014-3-25,35,26,18,16,10,3,71,46,35,30.16,30.08,29.85,10,10,10,15,7,21,0.00,2,,132
2014-3-26,35,31,26,24,16,-2,85,60,30,30.03,29.67,29.56,10,6,1,33,22,53,0.00,6,Snow,347
2014-3-27,37,29,21,27,9,-3,70,44,24,30.34,30.27,30.07,10,10,10,23,14,30,0.00,0,,257
2014-3-28,50,43,36,43,38,28,90,80,68,30.28,30.12,30.02,10,9,5,16,10,30,0.04,4,Rain,204
2014-3-29,52,44,37,45,41,36,100,90,68,30.22,30.10,29.89,10,5,0,13,5,18,0.97,5,Fog-Rain,36
2014-3-30,55,46,36,54,45,33,100,93,89,29.88,29.62,29.53,10,3,0,26,11,38,3.95,8,Fog-Rain-Snow,65
2014-3-31,39,36,34,35,32,29,89,85,70,29.97,29.79,29.64,10,8,2,24,18,37,0.09,8,Rain-Snow,2